Weather History for KRSW - February, 2013

Change the Weather History Date:

Sunday, February 17, 2013

  Actual Average Record
Temperature  
Mean Temperature 50 °F -  
Max Temperature 57 °F 76 °F 88 °F (1944)
Min Temperature 42 °F 55 °F 37 °F (1943)
Degree Days  
Heating Degree Days 16    
Moisture  
Dew Point 25 °F    
Average Humidity 39    
Maximum Humidity 58    
Minimum Humidity 23    
Precipitation  
Precipitation 0.00 in - - ()
Sea Level Pressure  
Sea Level Pressure 30.25 in    
Wind  
Wind Speed 10 mph (NNE)    
Max Wind Speed 15 mph    
Max Gust Speed 25 mph    
Visibility 10 miles    
Events      
Averages and records for this station are not official NWS values.
T = Trace of Precipitation, MM = Missing Value Source: NWS Daily Summary

Daily Weather History Graph

Daily Weather History Graph

Search for Another Location

Airport or City:

Trip Planner

Search our weather history database for the weather conditions in past years. The results will help you decide how hot, cold, wet, or windy it might be!

Date:

Astronomy

Feb. 17, 2013 Rise Set
Actual Time 7:01 AM EST 6:21 PM EST
Civil Twilight 6:37 AM EST 6:44 PM EST
Nautical Twilight 6:10 AM EST 7:11 PM EST
Astronomical Twilight 5:43 AM EST 7:38 PM EST
Moon 11:37 AM EST (2/17) 12:32 AM EST (2/17)
Length of Visible Light 12h 07m
Length of Day
11h 19m
Waxing Crescent, 49% of the Moon is Illuminated
Feb 17
Waxing Crescent
Feb 17
First Quarter
Feb 25
Full
Mar 4
Last Quarter
Mar 11
New

Hourly Weather History & Observations

Time (EST) Temp. Windchill Dew Point Humidity Pressure Visibility Wind Dir Wind Speed Gust Speed Precip Events Conditions
12:53 AM 57.0 °F - 39.0 °F 51% 30.12 in 10.0 mi North 8.1 mph - N/A   Mostly Cloudy
1:53 AM 54.0 °F - 37.9 °F 55% 30.13 in 10.0 mi North 11.5 mph - N/A   Mostly Cloudy
2:53 AM 51.1 °F - 34.0 °F 52% 30.14 in 10.0 mi North 12.7 mph 24.2 mph N/A   Clear
3:53 AM 48.0 °F - 28.9 °F 48% 30.17 in 10.0 mi North 11.5 mph 25.3 mph N/A   Clear
4:53 AM 46.0 °F 39.6 °F 21.9 °F 39% 30.18 in 10.0 mi North 15.0 mph 20.7 mph N/A   Clear
5:53 AM 44.1 °F 39.0 °F 19.9 °F 38% 30.22 in 10.0 mi North 9.2 mph - N/A   Clear
6:53 AM 42.1 °F 36.6 °F 21.0 °F 43% 30.24 in 10.0 mi NNE 9.2 mph - N/A   Clear
7:53 AM 44.1 °F 37.7 °F 19.9 °F 38% 30.27 in 10.0 mi NNE 12.7 mph 18.4 mph N/A   Clear
8:53 AM 46.0 °F 39.6 °F 19.9 °F 35% 30.29 in 10.0 mi NNE 15.0 mph - N/A   Clear
9:53 AM 48.9 °F - 19.9 °F 32% 30.31 in 10.0 mi NNE 13.8 mph 20.7 mph N/A   Clear
10:53 AM 50.0 °F - 21.9 °F 33% 30.32 in 10.0 mi North 12.7 mph - N/A   Clear
11:53 AM 53.1 °F - 23.0 °F 31% 30.32 in 10.0 mi North 12.7 mph - N/A   Clear
12:53 PM 55.0 °F - 24.1 °F 30% 30.30 in 10.0 mi North 13.8 mph 18.4 mph N/A   Clear
1:53 PM 57.0 °F - 21.9 °F 26% 30.27 in 10.0 mi NNW 10.4 mph - N/A   Clear
2:53 PM 57.0 °F - 21.0 °F 25% 30.26 in 10.0 mi Variable 5.8 mph - N/A   Clear
3:53 PM 57.9 °F - 19.9 °F 23% 30.26 in 10.0 mi North 6.9 mph - N/A   Clear
4:53 PM 57.0 °F - 19.0 °F 23% 30.26 in 10.0 mi North 8.1 mph - N/A   Clear
5:53 PM 55.9 °F - 19.0 °F 24% 30.27 in 10.0 mi NNE 4.6 mph - N/A   Clear
6:53 PM 51.1 °F - 24.1 °F 35% 30.28 in 10.0 mi NE 4.6 mph - N/A   Clear
7:53 PM 48.0 °F - 33.1 °F 56% 30.29 in 10.0 mi Calm Calm - N/A   Clear
8:53 PM 46.0 °F 43.1 °F 32.0 °F 58% 30.30 in 10.0 mi NE 5.8 mph - N/A   Clear
9:53 PM 44.6 °F 41.4 °F 30.2 °F 57% 30.33 in 10.0 mi ENE 5.8 mph - N/A   Clear
10:53 PM 44.1 °F 42.5 °F 27.0 °F 51% 30.33 in 10.0 mi NE 3.5 mph - N/A   Clear